Theta_e
296 295 294 292 291 292 292 292 293 293 293 294 294 294 296 297 297 299 300 300 301 303 305 308 311 313 315 318 318 317 317 316
295 295 294 293 291 291 291 292 293 292 293 293 292 293 295 295 296 298 299 300 301 303 304 306 308 312 313 315 316 314 311 310
294 295 294 293 290 290 291 291 292 293 293 292 292 293 293 293 294 296 297 300 300 302 304 304 304 307 311 308 308 307 305 303
293 293 294 292 290 290 290 291 292 293 293 292 291 291 291 291 292 294 296 297 299 299 299 300 300 301 302 302 301 300 300 301
293 293 293 291 290 289 290 290 291 293 293 292 291 290 290 291 291 292 293 294 295 295 296 297 298 298 299 298 297 296 295 295
287 288 290 290 289 288 289 289 290 292 292 291 291 291 290 290 290 291 291 292 293 293 294 294 295 296 295 295 295 293 292 291
288 285 286 286 288 288 286 289 290 290 291 292 291 291 289 289 289 290 290 290 291 291 292 292 292 292 294 294 292 292 291 290
291 288 288 288 289 288 289 290 290 291 289 289 287 287 288 288 289 288 289 289 289 290 291 290 290 291 292 291 293 292 290 289
294 291 290 290 288 290 289 289 290 291 290 290 290 288 287 287 289 288 289 288 289 289 290 290 289 290 291 290 291 290 289 289
297 294 291 290 288 288 288 289 289 289 289 288 288 288 288 288 288 287 289 289 288 289 289 288 288 289 289 290 289 287 287 287
295 292 290 290 289 288 287 287 287 288 288 287 287 287 288 287 286 286 286 285 286 285 287 286 287 288 288 289 287 286 285 285
293 290 289 288 287 285 286 285 287 286 286 285 285 285 287 286 285 286 285 285 284 285 285 285 286 287 287 288 287 286 285 285
291 289 289 286 285 284 285 286 284 284 283 282 282 284 284 283 283 283 284 284 283 284 285 285 284 286 287 287 287 288 285 285
290 287 285 283 284 283 283 283 281 280 279 280 281 282 283 283 283 283 283 285 283 284 285 285 284 285 286 287 286 286 284 285
286 285 285 284 283 284 283 282 280 281 280 280 280 282 281 283 284 285 284 284 284 283 284 285 285 284 284 285 285 283 284 285
286 286 286 286 284 284 283 281 282 282 282 282 282 281 282 282 284 283 285 286 285 285 285 284 284 284 286 285 284 284 284 283
286 286 287 286 286 284 283 282 282 282 283 283 283 283 283 283 283 285 285 285 286 286 286 284 285 285 285 285 286 286 285 283
287 287 286 286 286 285 283 282 282 284 285 284 283 284 283 283 283 283 283 284 284 285 285 285 284 284 284 285 286 285 285 281
286 286 286 285 286 286 284 283 283 283 285 285 285 284 284 284 284 284 284 281 281 284 284 285 285 284 285 286 286 283 283 281
284 285 284 284 286 286 284 283 283 284 284 285 285 285 285 285 284 284 284 284 285 284 284 284 286 286 285 286 283 282 282 282
Wind_Speed
4 3 2 3 3 2 3 4 4 4 3 4 4 5 6 5 5 4 4 3 5 5 5 4 3 2 1 4 4 4 3 2
4 3 2 3 3 3 3 4 4 4 4 3 5 5 5 5 6 6 6 5 5 5 6 4 4 2 3 2 4 5 4 3
3 4 3 2 2 3 3 4 4 3 3 4 3 4 5 5 6 7 7 6 6 6 5 4 4 4 3 5 4 5 5 4
3 4 4 1 1 2 3 4 3 2 3 3 3 4 5 5 6 6 6 6 6 6 5 4 4 5 6 7 6 7 5 5
3 4 3 2 1 1 3 3 4 4 5 6 5 5 4 4 4 5 5 6 6 7 6 6 6 6 5 7 7 8 7 7
4 4 4 3 2 1 3 3 4 5 4 5 5 4 4 5 5 5 5 6 6 6 7 7 7 5 5 7 7 7 8 7
5 6 5 4 4 4 2 3 4 5 4 4 4 4 4 4 6 6 6 6 6 7 7 8 6 11 11 7 8 7 7 8
7 7 5 6 6 6 6 5 4 5 3 3 5 6 8 7 6 5 6 6 7 7 7 8 8 11 10 9 7 6 7 6
7 6 8 7 4 4 6 5 5 4 4 3 3 4 3 4 6 6 5 5 4 5 6 7 7 10 8 9 7 7 6 4
7 7 8 8 7 6 5 3 3 4 4 3 3 3 3 4 5 6 6 5 5 4 5 5 6 6 6 6 6 6 7 4
7 6 7 8 8 6 5 6 6 5 4 4 4 4 4 3 3 3 4 4 4 5 6 5 4 5 5 5 3 5 4 5
8 7 7 8 7 6 5 6 4 5 5 4 3 3 4 5 3 2 3 3 4 4 4 5 6 4 4 4 2 3 3 3
6 6 6 7 7 7 8 5 5 4 3 4 3 3 2 3 3 4 3 3 2 2 2 2 3 6 4 4 4 5 3 2
6 5 4 6 6 6 4 6 6 5 3 3 3 3 4 5 5 4 4 4 3 2 2 2 2 3 3 3 5 5 3 3
6 6 7 7 9 8 6 6 7 7 6 4 3 3 3 3 3 5 5 5 5 5 4 3 2 2 1 1 4 6 5 5
7 7 8 7 9 7 6 7 8 6 5 6 6 6 5 5 5 5 5 7 7 5 5 6 4 4 7 7 6 5 6 5
7 7 9 7 8 7 8 9 8 8 7 7 7 6 6 5 5 12 10 11 10 7 7 4 5 11 12 13 14 14 16 4
9 8 5 7 7 8 9 9 10 10 8 6 7 7 7 6 6 5 7 15 14 16 14 13 9 17 16 18 17 16 16 6
6 7 6 6 8 8 9 10 10 10 8 7 7 7 6 7 7 6 6 5 5 16 15 17 17 14 15 15 15 9 13 8
4 5 5 6 9 7 9 10 10 8 7 7 6 6 7 6 6 6 7 7 5 2 8 13 18 17 14 16 8 8 8 9
Wind_Direction
279 229 166 119 109 92 32 29 28 26 21 353 346 347 334 328 322 324 320 322 308 316 328 314 306 104 108 161 164 159 174 171
276 253 174 156 130 109 84 35 34 28 16 359 1 353 338 338 338 338 325 339 331 333 320 338 341 344 97 87 119 107 104 59
255 240 235 187 147 112 85 70 51 17 9 30 12 6 4 358 349 349 336 350 343 328 328 356 11 353 110 99 83 109 102 79
218 238 242 214 173 111 111 99 77 66 63 60 30 18 15 8 1 360 358 359 2 356 358 11 26 57 64 83 88 83 81 81
231 222 230 210 207 91 88 64 50 46 38 31 18 10 14 4 26 28 20 28 25 24 21 20 35 43 64 89 88 78 69 61
230 228 247 210 191 191 124 82 70 51 47 41 17 18 19 20 33 47 51 50 48 44 36 38 43 33 55 70 80 86 80 62
211 211 218 214 210 180 214 158 126 107 78 46 38 31 27 30 40 39 42 47 54 55 55 56 58 52 60 82 87 77 80 78
200 202 203 192 197 192 169 166 150 132 121 65 43 31 20 13 35 38 43 48 52 52 63 64 67 70 73 74 82 86 83 92
176 175 189 182 196 176 162 172 156 144 120 89 74 76 64 23 22 26 27 47 47 51 64 77 65 74 84 88 91 93 86 93
175 164 168 178 178 178 175 170 172 161 143 131 99 81 65 66 60 31 9 19 37 45 70 77 84 87 77 93 96 97 85 74
152 141 153 174 173 182 192 185 193 184 164 159 152 139 118 66 57 72 76 37 21 19 26 31 85 91 88 104 104 105 104 81
160 171 175 160 164 187 191 217 190 151 151 162 160 155 142 130 103 91 81 91 73 53 36 19 11 52 52 46 86 116 117 119
172 176 164 156 170 189 204 177 149 142 158 162 159 159 151 135 140 127 125 97 48 70 121 99 18 13 44 42 45 106 116 111
181 180 163 160 186 194 208 152 147 143 176 194 177 178 170 172 165 161 158 153 168 184 204 178 159 148 69 77 87 68 68 99
172 196 207 194 201 210 161 157 162 177 179 172 181 215 223 221 195 183 183 185 176 185 193 180 174 157 96 100 118 107 96 103
193 207 221 186 209 196 175 162 180 182 181 188 194 193 206 225 211 216 224 193 187 198 176 169 187 192 171 164 175 170 156 139
214 212 227 197 202 182 176 181 185 190 192 197 194 196 205 203 223 236 246 220 229 196 179 185 145 158 183 189 182 176 167 165
223 227 197 218 198 184 178 182 199 214 198 192 198 201 199 204 211 224 211 234 236 231 220 214 198 192 186 191 188 182 175 203
221 227 210 214 231 177 179 188 208 214 213 200 197 206 203 206 208 202 202 213 233 233 226 224 218 214 210 194 182 188 203 204
218 234 204 222 245 173 176 189 203 205 213 213 209 198 208 205 209 214 213 215 219 177 217 220 223 219 212 205 206 211 214 217